Regional Weather Roundup
Issued by NWS

Home | Current Version | Previous Version | Text Only | Print | Product List | Glossary On
Versions: 1 2 3 4 5 6 7 8 9 10 11 12 13 14 15 16 17 18 19 20 21 22 23 24 25 26 27 28 29 30 31 32 33 34 35 36 37 38 39 40 41 42 43 44 45 46 47 48 49 50
000
ASUS43 KDTX 212201
RWRMI
MICHIGAN HOURLY REGIONAL WEATHER ROUNDUP
NATIONAL WEATHER SERVICE DETROIT/PONTIAC MI
600 PM EDT FRI JUL 21 2017

NOTE: "FAIR" INDICATES FEW OR NO CLOUDS BELOW 12,000 FEET WITH NO
SIGNIFICANT WEATHER AND/OR OBSTRUCTION TO VISIBILITY.

MIZ047>049-052>055-059>063-066>070-074>076-081>083-212300-
SOUTHEAST LOWER MICHIGAN

CITY           SKY/WX    TMP DP  RH WIND       PRES   REMARKS
ADRIAN         FAIR      87  66  49 VRB3      29.97F
ALMA           FAIR      84  67  56 S6        29.96R
ANN ARBOR      FAIR      84  70  62 S6        29.95F
BAD AXE        FAIR      83  60  45 CALM      29.96F
CARO           FAIR      86  63  45 SW5       29.95S
DETROIT CITY   FAIR      83  61  47 SE5       29.95F
DETROIT        CLOUDY    86  67  52 W7        29.96S
FLINT          FAIR      86  64  47 W6        29.96S
GROSSE ILE     FAIR      83  71  66 S9        29.95S
HILLSDALE      FAIR      84  64  51 CALM      29.98S
HOWELL         FAIR      83  65  54 W5        29.98S

CITY           SKY/WX    TMP DP  RH WIND       PRES   REMARKS
JACKSON        FAIR      86  64  47 SW8       29.97F
LAMBERTVILLE   FAIR      85  69  58 E3        29.95F
LANSING        FAIR      85  63  47 W8        29.97S
LAPEER         FAIR      85  63  46 CALM      29.97S
MASON          FAIR      84  65  53 CALM      29.97R
MONROE         FAIR      84  69  61 S3        29.95F
MT. CLEMENS    PTSUNNY   83  64  51 SE5       29.95S
PONTIAC        PTSUNNY   84  63  49 W7        29.96S
PORT HOPE        N/A     76  66  71 SE9       29.95S
PORT HURON     FAIR      84  66  54 CALM      29.96S
TRI CITIES     FAIR      87  67  51 S7        29.94F HX  90
MIDLAND        FAIR      89  65  44 W5        29.92F HX  91
TROY           FAIR      86  60  41 CALM      29.98R
SAGINAW HB     FAIR      86  64  48 SW7       29.94F
$$
MIZ043>046-050>051-056>058-064>065-071>073-077>080-212300-
SOUTHWEST LOWER MICHIGAN

CITY           SKY/WX    TMP DP  RH WIND       PRES   REMARKS
BATTLE CREEK   FAIR      85  67  54 SW5       29.98S
BENTON HARBOR  FAIR      81  69  67 NW3       29.95S
BIG RAPIDS     FAIR      85  58  39 W3        29.96R
COLDWATER      FAIR      86  65  48 SW5       29.97F
FREMONT        FAIR      79  67  66 W9        29.98R
HOLLAND        FAIR      79  69  71 W6        29.98R
GRAND RAPIDS   CLOUDY    84  67  56 S8        29.96S
IONIA          FAIR      84  64  51 SW5       29.96S
KALAMAZOO      FAIR      86  65  49 S6        29.97S
LUDINGTON      FAIR      74  70  86 SW5       29.97F
MARSHALL       FAIR      84  68  58 CALM      29.97S
MOUNT PLEASANT FAIR      89  58  34 CALM      29.94S
MUSKEGON       CLOUDY    76  69  79 NW7       29.98R
SOUTH HAVEN    FAIR      82  71  70 NW3       29.96F
$$
MIZ016>042-212300-
NORTHERN LOWER MICHIGAN

CITY           SKY/WX    TMP DP  RH WIND       PRES   REMARKS
ALPENA         FAIR      78  64  61 SE9       29.95F
BEAVER ISLAND  FAIR      79  61  54 SW5       29.94F
BELLAIRE       FAIR      82  59  45 CALM      29.94F
CADILLAC       FAIR      83  65  54 NW5       29.98S
CHARLEVOIX     FAIR      77  60  55 N5        29.98R
FRANKFORT      FAIR      77  65  66 CALM      29.96R
GAYLORD        FAIR      83  55  38 W8        29.97F
GRAYLING       FAIR      83  60  46 NW7       29.97F
HARBOR SPRINGS FAIR      76  64  65 CALM      29.95S
HOUGHTON LAKE  FAIR      83  61  47 N8        29.97F
MANISTEE       FAIR      75  68  78 SW6       29.97R
OSCODA         FAIR      81  65  59 E6        29.93F
PELLSTON       FAIR      84  61  45 W7        29.95F
ROGERS CITY    FAIR      78  64  61 N6        29.95F
TRAVERSE CITY  CLOUDY    79  67  66 N5        29.92F
$$
MIZ007>008-015-212300-
EASTERN UPPER MICHIGAN

CITY           SKY/WX    TMP DP  RH WIND       PRES   REMARKS
KINROSS        FAIR      74  52  46 N10       29.94
MACKINAC ISLAN FAIR      74  65  73 SW7       29.94S
NEWBERRY       FAIR      74  58  56 N6        29.94F
S. S. MARIE    FAIR      77  53  43 NW7       29.94F
MUNISING         N/A     70  64  81 NE5       29.93F
$$
MIZ004>006-011>014-085-212300-
CENTRAL UPPER MICHIGAN

CITY           SKY/WX    TMP DP  RH WIND       PRES   REMARKS
MANISTIQUE     FAIR      74  68  79 S5        29.93F
ESCANABA       FAIR      77  70  79 SE8       29.91F
MENOMINEE      FAIR      82  69  64 SW5       29.92F
SAWYER-GWINN   SUNNY     72  61  68 NE7       29.96S
$$
MIZ001>003-009>011-084-212300-
WESTERN UPPER MICHIGAN

CITY           SKY/WX    TMP DP  RH WIND       PRES   REMARKS
IRON MOUNTAIN  FAIR      83  65  54 S5        29.91F
HOUGHTON       FAIR      75  56  51 E9        29.93F
COPPER HARBOR    N/A     69  51  52 SE6       29.91F
IRONWOOD       FAIR      84  65  52 S7        29.89F
$$

ABBREVIATIONS USED IN REMARKS
   TC - TEMPERATURE IN CELSIUS
  WCI - WIND CHILL INDEX
   HX - HEAT INDEX
  VSB - VISIBILITY





USA.gov is the U.S. government's official web portal to all federal, state and local government web resources and services.